Location: Croisilles
(50.1998°N, 2.8793°E)
Time: 12:30:53
(UTC+00:00)

Okean-O - Pass Details

Date: 21 January 2021
Orbit: 638 x 641 km, 98.2° (Epoch: 27 February)

Event Time Altitude Azimuth Distance (km) Brightness Sun altitude
Rises 16:55:41 0° 119° (ESE) 2,942 5.7 -5.3°
Reaches altitude 10° 16:58:29 10° 100° (E) 2,038 4.7 -5.7°
Maximum altitude 17:01:25 18° 58° (ENE) 1,595 4.0 -6.2°
Drops below altitude 10° 17:04:21 10° 17° (NNE) 2,047 4.9 -6.6°
Sets 17:07:10 0° 358° (N) 2,961 5.8 -7.0°
